Regional Weather Roundup
Issued by NWS

Home | Current Version | Previous Version | Graphics & Text | Print | Product List | Glossary Off
Versions: 1 2 3 4 5 6 7 8 9 10 11 12 13 14 15 16 17 18 19 20 21 22 23 24 25 26 27 28 29 30 31 32 33 34 35 36 37 38 39 40 41 42 43 44 45 46 47 48 49 50

000
ASUS43 KMKX 050011
RWRWI

WISCONSIN REGIONAL WEATHER ROUNDUP
NATIONAL WEATHER SERVICE MILWAUKEE/SULLIVAN WI
600 PM CST SUN DEC 04 2016

NOTE: "FAIR" INDICATES FEW OR NO CLOUDS BELOW 12,000 FEET WITH NO
SIGNIFICANT WEATHER AND/OR OBSTRUCTIONS TO VISIBILITY.

WIZ001-002-006>008-014>016-023>028-050100-
NORTHWEST WISCONSIN

CITY           SKY/WX    TMP DP  RH WIND       PRES   REMARKS
SUPERIOR ARPT  CLOUDY    32  32 100 CALM      29.71F
6HR MIN TEMP:  32; 6HR MAX TEMP:  33;

ASHLAND        CLOUDY    32  30  92 S7        29.73F WCI  26
6HR MIN TEMP:  31; 6HR MAX TEMP:  33; 6HR PCP:  0.02;

HAYWARD        LGT SNOW  32  30  92 S8        29.72F FOG     WCI  25
6HR MIN TEMP:  31; 6HR MAX TEMP:  32; 6HR PCP:  0.01;

SIREN          CLOUDY    33  33  96 SW7       29.72F WCI  27
6HR MIN TEMP:  32; 6HR MAX TEMP:  33; 6HR PCP:  0.03;

CUMBERLAND     CLOUDY    32  32 100 S7        29.72F WCI  26
RICE LAKE      CLOUDY    33  32  97 S7        29.75F WCI  26
6HR MIN TEMP:  32; 6HR MAX TEMP:  33;

CHETEK         CLOUDY    32  32  99 S3        29.75S
6HR MIN TEMP:  31; 6HR MAX TEMP:  32;

LADYSMITH      CLOUDY    32  32  99 S9        29.76F FOG     WCI  24
6HR MIN TEMP:  32; 6HR MAX TEMP:  32; 6HR PCP:  0.01;

EAU CLAIRE     CLOUDY    33  32  96 S9        29.77S WCI  25
6HR MIN TEMP:  32; 6HR MAX TEMP:  33; 6HR PCP: TRACE;

MENOMONIE      CLOUDY    33  33 100 S9        29.77F WCI  26
6HR MIN TEMP:  33; 6HR MAX TEMP:  34;

NEW RICHMOND   LGT SNOW  33  32  96 S9        29.74F WCI  26
6HR MIN TEMP:  33; 6HR MAX TEMP:  34; 6HR PCP:  0.07;

OSCEOLA        CLOUDY    35  35 100 S7        29.76F WCI  29
6HR MIN TEMP:  33; 6HR MAX TEMP:  35; 6HR PCP:  0.01;

$$

WIZ003>005-009-010-017-018-050100-
NORTH CENTRAL WISCONSIN

CITY           SKY/WX    TMP DP  RH WIND       PRES   REMARKS
MANITOWISH WTR MIX PCPN  28  28 100 S7        29.73F WCI  21
6HR MIN TEMP:  28; 6HR MAX TEMP:  29;

ARBOR VITAE    LGT SNOW  32  30  92 S9        29.74F WCI  24
6HR MIN TEMP:  32; 6HR MAX TEMP:  32;

WOODRUFF       LGT SNOW  32  30  92 S9        29.74F WCI  24
6HR MIN TEMP:  32; 6HR MAX TEMP:  32;

RHINELANDER    LGT SNOW  29  28  96 S6        29.76F FOG     WCI  23
6HR MIN TEMP:  29; 6HR MAX TEMP:  30; 6HR PCP:  0.06;

EAGLE RIVER    LGT SNOW  28  28 100 S6        29.74F WCI  22
6HR MIN TEMP:  28; 6HR MAX TEMP:  29;

LAND O LAKES   LGT SNOW  29  28  96 S5        29.76F WCI  24
6HR MIN TEMP:  29; 6HR MAX TEMP:  30;

PHILLIPS       CLOUDY    29  28  97 S9        29.74F WCI  21
6HR MIN TEMP:  29; 6HR MAX TEMP:  30; 6HR PCP:  0.01;

TOMAHAWK       LGT SNOW  28  27  94 CALM      29.77F
6HR MIN TEMP:  28; 6HR MAX TEMP:  29;

MEDFORD        CLOUDY    29  28  95 S10       29.76F FOG     WCI  20
6HR MIN TEMP:  29; 6HR MAX TEMP:  29; 6HR PCP:  0.02;

MERRILL        LGT SNOW  30  29  99 S5        29.79F WCI  25
6HR MIN TEMP:  29; 6HR MAX TEMP:  30; 6HR PCP:  0.05;

$$

WIZ029-030-035-036-043>047-050100-
CENTRAL WISCONSIN

CITY           SKY/WX    TMP DP  RH WIND       PRES   REMARKS
WAUSAU         CLOUDY    30  28  92 S10       29.78F FOG     WCI  21
6HR MIN TEMP:  29; 6HR MAX TEMP:  30; 6HR PCP:  0.11;

MOSINEE        CLOUDY    28  28 100 S9        29.80F FOG     WCI  20
MARSHFIELD     CLOUDY    30  28  92 S10       29.79S FOG     WCI  21
6HR MIN TEMP:  30; 6HR MAX TEMP:  30; 6HR PCP: TRACE;

STEVENS POINT  MIX PCPN  28  28 100 SW8       29.82F WCI  20
6HR MIN TEMP:  28; 6HR MAX TEMP:  29; 6HR PCP:  0.08;

WAUPACA        LGT RAIN  32  31  95 CALM      29.84F
6HR MIN TEMP:  32; 6HR MAX TEMP:  33;

WAUTOMA        LGT SNOW  31  29  92 S6        29.85S FOG     WCI  25
6HR MIN TEMP:  31; 6HR MAX TEMP:  31; 6HR PCP: TRACE;

WISC RAPIDS    CLOUDY    31  30  96 SW7       29.83F FOG     WCI  24
6HR MIN TEMP:  31; 6HR MAX TEMP:  31; 6HR PCP:  0.17;

CAMP DOUGLAS   CLOUDY    31  30  94 S5        29.83F WCI  27
6HR MIN TEMP:  31; 6HR MAX TEMP:  32; 6HR PCP:  0.04;

$$

WIZ011>013-019>022-031-037>040-048>050-050100-
NORTHEAST WISCONSIN

CITY           SKY/WX    TMP DP  RH WIND       PRES   REMARKS
ANTIGO         LGT SNOW  28  27  98 S9        29.78F WCI  19
6HR MIN TEMP:  28; 6HR MAX TEMP:  28; 6HR PCP:  0.01;

SHAWANO        MIX PCPN  32  31  96 CALM      29.84F
6HR MIN TEMP:  32; 6HR MAX TEMP:  33; 6HR PCP:  0.08;

OCONTO         CLOUDY    32  31  98 CALM      29.85F
6HR MIN TEMP:  31; 6HR MAX TEMP:  32; 6HR PCP:  0.06;

STURGEON BAY   LGT SNOW  31  29  92 CALM      29.86F FOG
6HR MIN TEMP:  31; 6HR MAX TEMP:  32;

GREEN BAY      LGT SNOW  33  33 100 S7        29.85F FOG     WCI  27
6HR MIN TEMP:  32; 6HR MAX TEMP:  33; 6HR PCP:  0.20;

MANITOWOC      LGT SNOW  33  30  88 MISG      29.87F FOG
6HR MIN TEMP:  33; 6HR MAX TEMP:  34; 6HR PCP:  0.23;

APPLETON       LGT SNOW  30  30 100 S8        29.83F WCI  23
CLINTONVILLE   LGT SNOW  32  30  93 S6        29.83F WCI  26
OSHKOSH        LGT SNOW  31  29  92 S8        29.85F VSB 1   WCI  23
6HR MIN TEMP:  31; 6HR MAX TEMP:  31; 6HR PCP:  0.17;

$$

WIZ032>034-041-042-053>061-050100-
SOUTHWEST WISCONSIN

CITY           SKY/WX    TMP DP  RH WIND       PRES   REMARKS
LA CROSSE      CLOUDY    35  33  92 S8        29.83F WCI  29
6HR MIN TEMP:  34; 6HR MAX TEMP:  35; 6HR PCP:  0.06;

SPARTA         CLOUDY    32  32  99 SW6       29.84S FOG     WCI  26
6HR MIN TEMP:  32; 6HR MAX TEMP:  32;

VIROQUA        CLOUDY    32  32 100 SW9       29.82F WCI  24
6HR MIN TEMP:  31; 6HR MAX TEMP:  32;

BOSCOBEL       CLOUDY    34  32  92 S5        29.88F FOG     WCI  30
6HR MIN TEMP:  33; 6HR MAX TEMP:  34; 6HR PCP:  0.07;

PRAIRIE DU CHI CLOUDY    33  32  96 SW3       29.87F
6HR MIN TEMP:  32; 6HR MAX TEMP:  33; 6HR PCP:  0.09;

PLATTEVILLE    CLOUDY    32  32 100 SW7       29.87S WCI  25
6HR MIN TEMP:  31; 6HR MAX TEMP:  32; 6HR PCP:  0.01;

$$

WIZ056-057-062-063-064-067-068-050100-
SOUTH CENTRAL WISCONSIN

CITY           SKY/WX    TMP DP  RH WIND       PRES   REMARKS
REEDSBURG      LGT SNOW  31  31 100 SW6       29.85S WCI  25
6HR MIN TEMP:  30; 6HR MAX TEMP:  31; 6HR PCP:  0.12;

BARABOO/DELLS  CLOUDY    31  29  94 SW9       29.85S WCI  23
6HR MIN TEMP:  30; 6HR MAX TEMP:  31; 6HR PCP:  0.01;

LONE ROCK      LGT SNOW  32  30  92 SW7       29.88S FOG     WCI  26
6HR MIN TEMP:  31; 6HR MAX TEMP:  32; 6HR PCP:  0.11;

MINERAL POINT  CLOUDY    32  32 100 SW7       29.85F FOG     WCI  26
MADISON        FLURRIES  31  28  89 S10       29.86F WCI  22
6HR MIN TEMP:  30; 6HR MAX TEMP:  31; 6HR PCP:  0.20;

MIDDLETON      CLOUDY    32  32  99 S7        29.87F WCI  26
6HR MIN TEMP:  32; 6HR MAX TEMP:  32; 6HR PCP:  0.03;

WATERTOWN      LGT SNOW  30  30 100 S5        29.87F WCI  25
6HR MIN TEMP:  30; 6HR MAX TEMP:  31; 6HR PCP:  0.20;

MONROE         CLOUDY    30  30 100 S9        29.86F FOG     WCI  22
JANESVILLE     LGT SNOW  32  32 100 CALM      29.88F
$$

WIZ051-052-058>065-066-070>072-050100-
SOUTHEAST WISCONSIN

CITY           SKY/WX    TMP DP  RH WIND       PRES   REMARKS
MILWAUKEE      LGT SNOW  34  31  88 SW8       29.88F FOG     WCI  27
6HR MIN TEMP:  34; 6HR MAX TEMP:  35; 6HR PCP:  0.30;

WAUKESHA       LGT SNOW  28  28 100 S3        29.88F VSB 1
MILWAUKEE/TIMM SNOW      32  30  93 CALM      29.89F VSB 1/2
RACINE         LGT SNOW  33  31  92 SW6       29.90S FOG     WCI  28
6HR MIN TEMP:  33; 6HR MAX TEMP:  34; 6HR PCP:  0.29;

BURLINGTON     LGT SNOW  31  31  99 CALM      29.88F
6HR MIN TEMP:  31; 6HR MAX TEMP:  32; 6HR PCP:  0.10;

KENOSHA        LGT SNOW  32  31  96 SW5       29.89S VSB 3/4 WCI  27
6HR MIN TEMP:  32; 6HR MAX TEMP:  33; 6HR PCP:  0.11;

FOND DU LAC    LGT SNOW  31  28  89 S8        29.86S FOG     WCI  23
6HR MIN TEMP:  31; 6HR MAX TEMP:  32; 6HR PCP:  0.18;

SHEBOYGAN      LGT SNOW  32  30  92 SW5       29.86F FOG     WCI  27
6HR MIN TEMP:  31; 6HR MAX TEMP:  33; 6HR PCP:  0.23;

WEST BEND      LGT SNOW  32  32 100 CALM      29.86F
JUNEAU         LGT SNOW  30  29  96 S7        29.87F VSB 3/4 WCI  23
6HR MIN TEMP:  30; 6HR MAX TEMP:  30; 6HR PCP:  0.08;

$$

LSZ147-162-050100-
LAKE SUPERIOR

STATION/POSITION TIME  TEMP    WIND        PRES    WAVE
                       AIR SEA DIR/SP/G            HT/PER
                 (UTC) (F)     (DEG/KT/KT) (MB)    (FT/S)
DEVILS ISLAND    0000   33     170/  6/  9 1007.4F
PORT WING        2340   33     160/  3/  5 1006.8F
SAXON HARBOR     2340   33     190/  3/  8 1007.5S
$$

LMZ867-665-643>646-050100-
LAKE MICHIGAN

STATION/POSITION TIME  TEMP    WIND        PRES    WAVE
                C1F1C2F2C3F3C4F4C5F5C6F6C7F7C8M1C9M2Ca!



USA.gov is the U.S. government's official web portal to all federal, state and local government web resources and services.